Hourly Data Report for October 12, 2013

All times are specified in Local Standard Time (LST). Add 1 hour to adjust for Daylight Saving Time where and when it is observed.

PENTICTON A
BRITISH COLUMBIA

49°27'45.000" N
119°36'08.000" W
344.40 m
1126146
71889
YYF

Download Data

Hourly Data (October 2013)
Hourly Data Report for October 12, 2013
Temp Definition
°C
Dew Point Temp Definition
°C
Rel Hum Definition
%
Wind Dir Definition
10's deg

Wind Spd Definition
km/h
Visibility Definition
km
Stn Press Definition
kPa
Hmdx Definition


Wind Chill Definition


Weather Definition


TIME
00:00 Legend Double Dagger 7.2 2.3 71 1 8 24.1 97.77     LegendNANA
01:00 Legend Double Dagger 7.0 2.5 73 1 10 24.1 97.80     Cloudy
02:00 Legend Double Dagger 7.2 2.7 73 1 11 24.1 97.81     LegendNANA
03:00 Legend Double Dagger 6.2 2.8 79 36 8 24.1 97.82     Rain Showers
04:00 Legend Double Dagger 5.9 2.9 81 1 9 24.1 97.83     Rain Showers
05:00 Legend Double Dagger 5.6 3.3 85 36 6 24.1 97.85     LegendNANA
06:00 Legend Double Dagger 6.2 3.7 84 33 6 24.1 97.87     Rain Showers
07:00 Legend Double Dagger 6.5 4.0 84 1 8 24.1 97.91     Cloudy
08:00 Legend Double Dagger 7.6 4.9 83 1 7 24.1 97.95     LegendNANA
09:00 Legend Double Dagger 9.2 4.8 74 36 7 24.1 97.98     Rain Showers
10:00 Legend Double Dagger 10.7 4.4 65 2 13 24.1 97.99     Cloudy
11:00 Legend Double Dagger 11.8 3.4 56 4 8 24.1 97.98     LegendNANA
12:00 Legend Double Dagger 12.7 3.7 54 4 9 24.1 97.95     LegendNANA
13:00 Legend Double Dagger 12.9 3.3 52 34 9 24.1 97.91     Mainly Clear
14:00 Legend Double Dagger 13.1 2.4 48 36 5 24.1 97.89     LegendNANA
15:00 Legend Double Dagger 13.2 2.2 47 7 10 24.1 97.91     LegendNANA
16:00 Legend Double Dagger 12.8 3.0 51 35 4 24.1 97.95     Mostly Cloudy
17:00 Legend Double Dagger 10.9 3.0 58 36 9 24.1 97.99     LegendNANA
18:00 Legend Double Dagger 8.4 2.4 66 35 12 24.1 98.05     LegendNANA
19:00 Legend Double Dagger 7.3 1.6 67 33 10 24.1 98.11     Mainly Clear
20:00 Legend Double Dagger 6.9 1.0 66 36 12 24.1 98.13     LegendNANA
21:00 Legend Double Dagger 6.5 1.0 68 36 13 24.1 98.19     LegendNANA
22:00 Legend Double Dagger 7.4 1.3 65 33 12 24.1 98.24     Mainly Clear
23:00 Legend Double Dagger 7.4 1.5 66 33 12 24.1 98.26     LegendNANA

Notes on Data Quality.

Legend

  • E = Estimated
  • M = Missing
  • NA = Not Available
  • ‡ = Partner data that is not subject to review by the National Climate Archives
Date modified: